This is the latest recevied weather packets stored in our database for station/object OE3KJN-13. If no packets are shown the sender has not sent any weather packets the latest 1 day(s).
| Time | Temp. | Humidity | Pressure | Rain* | Wind** | Luminosity | Snow |
|---|---|---|---|---|---|---|---|
| 1778018359 | 18.33° C | 100% | 0 hPa | 0 mm | 0 m/s | - | - |
| 1778018058 | 18.89° C | 100% | 0 hPa | 0 mm | 0 m/s | - | - |
| 1778017758 | 19.44° C | 100% | 0 hPa | 0 mm | 0 m/s | - | - |
| 1778017458 | 18.89° C | 100% | 0 hPa | 0 mm | 0 m/s | - | - |
| 1778017158 | 18.89° C | 100% | 0 hPa | 0 mm | 1.34 m/s, 315° | - | - |
| 1778016857 | 19.44° C | 100% | 0 hPa | 0 mm | 0.45 m/s, 291° | - | - |
| 1778016557 | 20° C | 100% | 0 hPa | 0 mm | 2.24 m/s, 323° | - | - |
| 1778016257 | 19.44° C | 100% | 0 hPa | 0 mm | 0.89 m/s, 331° | - | - |
| 1778015956 | 20° C | 100% | 0 hPa | 0 mm | 0 m/s | - | - |
| 1778015656 | 20° C | 100% | 0 hPa | 0 mm | 1.34 m/s, 351° | - | - |
| 1778015356 | 20° C | 100% | 0 hPa | 0 mm | 1.34 m/s, 319° | - | - |
| 1778015062 | 19.44° C | 100% | 0 hPa | 0 mm | 2.24 m/s, 305° | - | - |
| 1778014755 | 19.44° C | 100% | 0 hPa | 0 mm | 1.79 m/s, 305° | - | - |
| 1778014455 | 19.44° C | 100% | 0 hPa | 0 mm | 2.24 m/s, 334° | - | - |
| 1778014155 | 19.44° C | 100% | 0 hPa | 0 mm | 2.24 m/s, 298° | - | - |
| 1778013854 | 20° C | 100% | 0 hPa | 0 mm | 3.13 m/s, 292° | - | - |
| 1778013554 | 19.44° C | 100% | 0 hPa | 0 mm | 2.24 m/s, 261° | - | - |
| 1778013254 | 20° C | 100% | 0 hPa | 0 mm | 3.58 m/s, 298° | - | - |
| 1778012953 | 20° C | 100% | 0 hPa | 0 mm | 3.13 m/s, 306° | - | - |
| 1778012653 | 20° C | 100% | 0 hPa | 0 mm | 1.34 m/s, 305° | - | - |
| 1778012353 | 20° C | 100% | 0 hPa | 0 mm | 4.92 m/s, 309° | - | - |
| 1778012053 | 20° C | 100% | 0 hPa | 0 mm | 3.58 m/s, 317° | - | - |
| 1778011752 | 20° C | 100% | 0 hPa | 0 mm | 5.36 m/s, 288° | - | - |
| 1778011452 | 20° C | 100% | 0 hPa | 0 mm | 3.58 m/s, 282° | - | - |
| 1778011152 | 20.56° C | 100% | 0 hPa | 0 mm | 3.58 m/s, 270° | - | - |
* Rain latest hour (hover to see other rain measurements)
** Current wind speed in m/s (hover to see current wind gust speed)